This is the latest recevied weather packets stored in our database for station/object N8HON. If no packets are shown the sender has not sent any weather packets the latest 10 day(s).
| Time | Temp. | Humidity | Pressure | Rain* | Wind** | Luminosity | Snow |
|---|---|---|---|---|---|---|---|
| 1778253898 | 16.67° C | 38% | 1013.8 hPa | 0 mm | - | 689 W/m² | - |
| 1778253594 | 15.56° C | 41% | 1013.9 hPa | 0 mm | - | 710 W/m² | - |
| 1778253291 | 15.56° C | 39% | 1014.1 hPa | 0 mm | - | 492 W/m² | - |
| 1778252987 | 15° C | 42% | 1014.2 hPa | 0 mm | - | 788 W/m² | - |
| 1778252684 | 15.56° C | 41% | 1014.2 hPa | 0 mm | - | 114 W/m² | - |
| 1778252379 | 15° C | 43% | 1014.3 hPa | 0 mm | - | 151 W/m² | - |
| 1778252076 | 15.56° C | 41% | 1014.4 hPa | 0 mm | - | 603 W/m² | - |
| 1778251773 | 14.44° C | 44% | 1014.4 hPa | 0 mm | - | 377 W/m² | - |
| 1778251471 | 13.89° C | 46% | 1014.3 hPa | 0 mm | - | 134 W/m² | - |
| 1778251168 | 14.44° C | 44% | 1014.3 hPa | 0 mm | - | 174 W/m² | - |
| 1778250866 | 15° C | 45% | 1014.2 hPa | 0 mm | - | 799 W/m² | - |
| 1778250562 | 15° C | 46% | 1014.3 hPa | 0 mm | - | 754 W/m² | - |
| 1778250259 | 13.89° C | 44% | 1014.3 hPa | 0 mm | - | 642 W/m² | - |
| 1778249955 | 13.89° C | 48% | 1014.4 hPa | 0 mm | - | 133 W/m² | - |
| 1778249652 | 13.33° C | 45% | 1014.4 hPa | 0 mm | - | 347 W/m² | - |
| 1778249350 | 13.89° C | 47% | 1014.4 hPa | 0 mm | - | 231 W/m² | - |
| 1778249047 | 14.44° C | 45% | 1014.5 hPa | 0 mm | - | 173 W/m² | - |
| 1778248742 | 13.33° C | 46% | 1014.4 hPa | 0 mm | - | 466 W/m² | - |
| 1778248439 | 13.33° C | 49% | 1014.6 hPa | 0 mm | - | 211 W/m² | - |
| 1778248136 | 13.33° C | 49% | 1014.6 hPa | 0 mm | - | 615 W/m² | - |
| 1778247832 | 13.33° C | 46% | 1014.7 hPa | 0 mm | - | 557 W/m² | - |
| 1778247529 | 12.78° C | 49% | 1014.7 hPa | 0 mm | - | 498 W/m² | - |
| 1778247227 | 13.33° C | 51% | 1014.7 hPa | 0 mm | - | 500 W/m² | - |
| 1778246923 | 11.67° C | 53% | 1014.8 hPa | 0 mm | - | 460 W/m² | - |
| 1778246621 | 11.67° C | 52% | 1014.6 hPa | 0 mm | - | 135 W/m² | - |
* Rain latest hour (hover to see other rain measurements)
** Current wind speed in m/s (hover to see current wind gust speed)